Regional Weather Roundup
Issued by NWS Newport/Morehead, NC

Current Version | Previous Version | Graphics & Text | Print | Product List | Glossary Off
Versions: 1 2 3 4 5 6 7 8 9 10 11 12 13 14 15 16 17 18 19 20 21 22 23 24 25 26 27 28 29 30 31 32 33 34 35 36 37 38 39 40 41 42 43 44 45 46 47 48 49 50

000
ASUS42 KMHX 241722
RWRMHX
WEATHER ROUNDUP FOR EASTERN NORTH CAROLINA
NATIONAL WEATHER SERVICE NEWPORT/MOREHEAD CITY NC
1200 PM EST WED DEC 24 2014

NOTE: "FAIR" INDICATES FEW OR NO CLOUDS BELOW 12,000 FEET
WITH NO SIGNIFICANT WEATHER AND/OR OBSTRUCTIONS TO VISIBILITY

NCZ015>017-031-032-045>047-102-103-241800-
NORTH COAST

CITY           SKY/WX    TMP DP  RH WIND       PRES   REMARKS
EDENTON        DRIZZLE   66  65  95 S15G21    29.78F
ELIZABETH CITY LGT RAIN  72  66  81 S15G23    29.81F
KITTY HAWK     CLOUDY    65  64  97 S13G22    29.83F
MANTEO         CLOUDY    57  57 100 S17       29.85

$$

NCZ045>047-081-094-103-104-241800-
CENTRAL COAST

CITY           SKY/WX    TMP DP  RH WIND       PRES   REMARKS
FRISCO         CLOUDY    64  63  96 S14       29.88F FOG
SWANQUARTER      N/A     61 N/A N/A S17G25    29.79F

$$

NCZ095-097-098-100-101-241800-
SOUTHERN COAST

CITY           SKY/WX    TMP DP  RH WIND       PRES   REMARKS
BEAUFORT       RAIN      67  66  97 S10       29.85F FOG
CEDAR ISLAND     N/A     68 N/A N/A S15       29.88F
JACKSONVILLE   RAIN      69  67  93 SW14G38   29.81R FOG
PINEY ISLAND   RAIN      71  67  87 S13G18    29.85F
WILMINGTON     HVY RAIN  70  69  97 SW9       29.80R VSB 1


$$

NCZ011>013-027>030-043-044-078>080-089-090>093-098-241800-
COASTAL PLAIN

CITY           SKY/WX    TMP DP  RH WIND       PRES   REMARKS
AHOSKIE        RAIN      67  66  97 S5        29.76F
CLINTON        LGT RAIN  69  69 100 S6        29.78F
ELIZABETHTOWN  CLOUDY    70  68  95 SW14G20   29.77F
GOLDSBORO      LGT RAIN  68  68 100 S13G18    29.76F
GREENVILLE     HVY RAIN  70  68  94 SW9       29.79F
HAVELOCK       LGT RAIN  70  68  93 S15G28    29.83F FOG
KENANSVILLE    CLOUDY    69  68  97 S8        29.79F FOG
KINSTON        NOT AVBL
NEW BERN       LGT RAIN  72  68  87 S18       29.80F FOG
RICHLANDS      CLOUDY    70  66  88 SW13G20   29.81S
ROCKY MOUNT    LGT RAIN  67  66  97 S8        29.77F FOG
WASHINGTON     CLOUDY    69  67  94 S9G22     29.78F
WHITEVILLE     CLOUDY    71  66  84 S15G24    29.77F

$$

AMZ130-135-150-152-154-156-158-170-250-252-270-ANZ085-086-088-633-658-670-241800-
MARINE OBSERVATIONS

STATION/POSITION TIME  TEMP    WIND        PRES    WAVE   SWELL
                       AIR SEA DIR/SP/G            HT/PER HT/PER
                 (UTC) (F)     (DEG/KT/KT) (MB)    (FT/S) (FT/S)
CHESAPEAKE LIGHT 1700   57     180/ 27/ 28 1008.7
64 E VA BEACH    1700   60 53  180/ 14/ 16 1010.6    5/ 7   3/ 9
DUCK             1700   69 48  180/ 22/ 26 1008.7
2 E DUCK         1700      48                N/A     3/ 8
10 NE DUCK       1700      50                N/A     3/ 8   2/11
OREGON INLET     1700   60 51  170/ 13/ 17 1010.9
13E OREGON INLT  1700      53                N/A     4/ 8   2/11
HATTERAS CG      1700   66 55  190/  8/ 15 1012.0
DIAMOND BUOY     1700   75                 1011.2    8/ 7
17 S OCRACOKE    NOT AVBL
CAPE LOOKOUT     1700   65     170/ 17/ 17 1010.5
BEAUFORT LAB     1700   63 54  160/  8/ 11 1009.4
30 SE NEW RIVER  1700   68 60  180/ 17/ 19 1010.5    8/ 8
5 SE WRIGHTSVLE  NOT AVBL
225 S CAPE HAT   1559   75 72  190/ 17/ 21 1015.9    5/ 5   2/ 9
41 SE CHARLESTON 1700   77 74  190/ 23/ 27 1009.2    8/ 8

$$


USA.gov is the U.S. government's official web portal to all federal, state and local government web resources and services.